sat.trackr.live / text

‹ back to catalog

BEIDOU-3 M2 (C20)

NORAD 43002 · 2017-069B

PAYLOAD ACTIVE UNKNOWN

§ Identity

Operator
Country
PRC
Launch date
2017-11-05
Launch site
XICLF
Launch vehicle
Mass (kg)
RCS (m²)

Purposes: nav

External: N2YO · Heavens-Above · Gunter

§ Orbital elements

Epoch: 2026-05-24T23:34:55.859808Z

Period
773.24 min
Inclination
56.6725°
Eccentricity
0.0009764
Mean motion
1.86230543 rev/d
Perigee alt
21,500.8 km
Apogee alt
21,555.3 km
Semi-major
27,906.2 km
B*
0.0000e+0
RAAN
63.8844°
Arg perigee
345.7840°
Mean anomaly
14.1813°
Rev number
5,816

§ Raw data

BEIDOU-3 M2 (C20)1 43002U 17069B   26144.98259097 -.00000074  00000+0  00000+0 0  99982 43002  56.6725  63.8844 0009764 345.7840  14.1813  1.86230543 58162

JSON: /api/v1/satellites/43002 · /tle

For live sub-satellite position, see the globe view (requires WebGL).

§ Visibility from observer

Set your observer location to see the next 7 days of passes ≥ 10°. The values pass through the URL so the page stays shareable.

No JS? Fill the form by hand. The geolocation button needs JavaScript.